Airfield :
LOGIN :

Register | Disclaimer

   EN    FR    IT 

 










Legend :    VFR   Marginal VFR   IFR   Intensive IFR   Very Intensive IFR
Visi :
Ceiling :
>= 8 km
>= 3000ft
5 to 8 km
1000 to 3000 ft
1500m to 5 km
500 to 1000 ft
800 to 1500m
200 to 500 ft
< 800m
< 200 ft
Symbols :   Thunderstorms  Fog  Heavy snow  Heavy precipitations  Wind > 20 kt
SIGMETs :     Misc.  Thunderstorms  Icing  Turbulence  Mountain Waves  Volcanic Ashes







- Airport Elevation : 177 ft
- IATA code : BRI


LIBD - Palese Macchie Bari

CURRENT METAR :
  • 170020Z 16002KT CAVOK 16/15 Q1019

EXPIRED METARs :
  • 162350Z 18002KT CAVOK 16/15 Q1019
  • 162320Z 19003KT CAVOK 16/15 Q1019
  • 162250Z 21004KT CAVOK 17/16 Q1019
  • 162220Z 19003KT CAVOK 17/16 Q1019
  • 162150Z 19003KT CAVOK 17/16 Q1019
  • 162120Z 22004KT CAVOK 17/16 Q1019

TAF TAF LIBD
Valid from the 17 at 00:00 until the 18 at 00:00 UTC


162300Z 1700/1724 12010KT 9999 SCT030
TEMPO 1705/1710 RA
No reported NOTAMs for that airfield.



MET'MAP, your aeronautical weather chart ! - Copyright ORBIFLY December 2007 - Disclaimer

ORBIFLY MET'MAP TEAM :

Programming & Development : Alexandra Zaïnal
Concept & Development : Baudouin d'Aumeries
Co-Development & Prog : Marc-Olivier Méhu
Technical & hardware support : Manuel Goepfert

Contact : metmap@orbifly.com




SOURCES & CREDITS :

   NOAA